Weather History for Fort Campbell, KY

Change the Weather History Date:

Friday, February 15, 2013

  Actual Average Record
Temperature  
Mean Temperature 38 °F -  
Max Temperature 46 °F 49 °F 71 °F (2005)
Min Temperature 28 °F 31 °F 14 °F (2007)
Degree Days  
Heating Degree Days 27    
Moisture  
Dew Point 29 °F    
Average Humidity 68    
Maximum Humidity 92    
Minimum Humidity 46    
Precipitation  
Precipitation 0.00 in - - ()
Sea Level Pressure  
Sea Level Pressure 30.15 in    
Wind  
Wind Speed 7 mph (NNW)    
Max Wind Speed 13 mph    
Max Gust Speed 21 mph    
Visibility 10 miles    
Events      
Averages and records for this station are not official NWS values.
T = Trace of Precipitation, MM = Missing Value Source: NWS Daily Summary

Daily Weather History Graph

Daily Weather History Graph

Search for Another Location

Airport:

Trip Planner

Search our weather history database for the weather conditions in past years. The results will help you decide how hot, cold, wet, or windy it might be!

Date:

Astronomy

Feb. 15, 2013 Rise Set
Actual Time 6:37 AM CST 5:30 PM CST
Civil Twilight 6:11 AM CST 5:57 PM CST
Nautical Twilight 5:41 AM CST 6:27 PM CST
Astronomical Twilight 5:11 AM CST 6:57 PM CST
Moon 9:24 AM CST (2/15) 11:20 PM CST (2/15)
Length of Visible Light 11h 45m
Length of Day
10h 53m
Waxing Crescent, 30% of the Moon is Illuminated
Feb 15
Waxing Crescent
Feb 17
First Quarter
Feb 25
Full
Mar 4
Last Quarter
Mar 11
New

Hourly Weather History & Observations

Time (CST) Temp. Windchill Dew Point Humidity Pressure Visibility Wind Dir Wind Speed Gust Speed Precip Events Conditions
12:55 AM 40.1 °F 36.9 °F 34.9 °F 82% 30.02 in 10.0 mi SW 4.6 mph - N/A   Clear
1:55 AM 42.3 °F 37.9 °F 36.3 °F 79% 30.03 in 10.0 mi North 6.9 mph - N/A   Clear
2:55 AM 40.6 °F 36.7 °F 35.6 °F 82% 30.05 in 10.0 mi North 5.8 mph - N/A   Partly Cloudy
3:55 AM 40.1 °F 36.9 °F 35.2 °F 83% 30.07 in 10.0 mi North 4.6 mph - N/A   Mostly Cloudy
4:55 AM 38.5 °F - 35.2 °F 88% 30.08 in 10.0 mi Calm Calm - N/A   Scattered Clouds
5:55 AM 38.3 °F - 36.1 °F 92% 30.10 in 10.0 mi Calm Calm - N/A   Mostly Cloudy
6:55 AM 39.4 °F 33.8 °F 35.2 °F 85% 30.12 in 10.0 mi NW 8.1 mph - N/A   Mostly Cloudy
7:55 AM 40.6 °F 36.0 °F 36.1 °F 84% 30.14 in 10.0 mi NW 6.9 mph - N/A   Mostly Cloudy
8:55 AM 40.8 °F 33.7 °F 36.5 °F 85% 30.17 in 10.0 mi NW 12.7 mph - N/A   Overcast
9:55 AM 41.0 °F 37.1 °F 35.1 °F 79% 30.17 in 10.0 mi North 5.8 mph - N/A   Overcast
10:55 AM 42.4 °F 37.0 °F 33.8 °F 71% 30.18 in 10.0 mi NW 9.2 mph - N/A   Mostly Cloudy
11:55 AM 46.0 °F 40.6 °F 29.7 °F 53% 30.16 in 10.0 mi WNW 11.5 mph 17.3 mph N/A   Scattered Clouds
12:55 PM 46.0 °F 41.0 °F 28.2 °F 50% 30.14 in 10.0 mi NNW 10.4 mph 18.4 mph N/A   Mostly Cloudy
1:55 PM 45.3 °F 39.7 °F 27.7 °F 50% 30.13 in 10.0 mi NW 11.5 mph 20.7 mph N/A   Mostly Cloudy
2:55 PM 44.8 °F 39.0 °F 25.2 °F 46% 30.14 in 10.0 mi NW 11.5 mph 18.4 mph N/A   Mostly Cloudy
3:55 PM 44.1 °F 38.1 °F 25.9 °F 49% 30.16 in 10.0 mi NNW 11.5 mph 20.7 mph N/A   Partly Cloudy
4:55 PM 41.2 °F 35.5 °F 24.4 °F 51% 30.17 in 10.0 mi NNW 9.2 mph - N/A   Clear
5:55 PM 37.9 °F 32.1 °F 23.2 °F 55% 30.19 in 10.0 mi North 8.1 mph - N/A   Clear
6:55 PM 34.9 °F 28.3 °F 21.4 °F 58% 30.20 in 10.0 mi North 8.1 mph - N/A   Clear
7:55 PM 34.3 °F 29.2 °F 20.5 °F 57% 30.22 in 10.0 mi NNW 5.8 mph - N/A   Clear
8:55 PM 32.7 °F 25.7 °F 19.2 °F 58% 30.22 in 10.0 mi NNW 8.1 mph - N/A   Clear
9:55 PM 31.3 °F 24.7 °F 18.9 °F 60% 30.22 in 10.0 mi North 6.9 mph - N/A   Clear
10:55 PM 30.0 °F 24.1 °F 18.7 °F 63% 30.21 in 10.0 mi North 5.8 mph - N/A   Clear
11:55 PM 28.2 °F 24.4 °F 19.2 °F 69% 30.20 in 10.0 mi North 3.5 mph - N/A   Clear